BCY5159 EGLC-EGPH

Flight info

Callsign BCY5159
Flight time 0h 58m
Altitude 28000
Route BPK UN601 RIBEL DCT INPIP
Aircraft RJ85/M-SDFGIRWY/LB1

Departure

Time 2026-04-21 11:38
Airport London City Airport (EGLC)

Arrival

Time 2026-04-21 12:36
Airport Edinburgh Airport (EGPH)
Time Latitude Longitude Altitude Speed Heading
2026-04-21 11:17 51.50438 0.04759 25 ft 0 kts 314°
2026-04-21 11:36 51.50438 0.04758 25 ft 1 kts 314°
2026-04-21 11:36 51.50454 0.04731 26 ft 6 kts 308°
2026-04-21 11:36 51.50472 0.04642 25 ft 10 kts 275°
2026-04-21 11:37 51.50476 0.04520 26 ft 12 kts 274°
2026-04-21 11:37 51.50528 0.04439 26 ft 12 kts 360°
2026-04-21 11:37 51.50557 0.04477 25 ft 0 kts 93°
2026-04-21 11:38 51.50545 0.04837 25 ft 74 kts 93°
2026-04-21 11:38 51.50510 0.05949 300 ft 108 kts 92°
2026-04-21 11:38 51.50487 0.07143 1161 ft 105 kts 90°
2026-04-21 11:38 51.50466 0.08291 1982 ft 100 kts 89°
2026-04-21 11:39 51.50462 0.09452 2415 ft 108 kts 76°
2026-04-21 11:39 51.51077 0.10038 2851 ft 122 kts 354°
2026-04-21 11:39 51.51866 0.09536 3329 ft 126 kts 352°
2026-04-21 11:39 51.52772 0.09058 3512 ft 150 kts 352°
2026-04-21 11:40 51.53856 0.08534 3573 ft 175 kts 350°
2026-04-21 11:40 51.55097 0.07929 3623 ft 196 kts 350°
2026-04-21 11:40 51.56479 0.07271 3705 ft 220 kts 349°
2026-04-21 11:40 51.57980 0.06488 4468 ft 231 kts 339°
2026-04-21 11:41 51.59383 0.05190 5464 ft 239 kts 333°
2026-04-21 11:41 51.60811 0.03739 6505 ft 246 kts 332°
2026-04-21 11:41 51.62263 0.02213 7564 ft 251 kts 331°
2026-04-21 11:41 51.63739 0.00654 8674 ft 254 kts 331°
2026-04-21 11:42 51.65240 -0.00909 9774 ft 258 kts 331°
2026-04-21 11:42 51.66251 -0.01950 10414 ft 265 kts 332°
2026-04-21 11:42 51.68397 -0.04131 11429 ft 285 kts 332°
2026-04-21 11:42 51.70125 -0.05875 12168 ft 298 kts 332°
2026-04-21 11:43 51.71301 -0.07056 12738 ft 302 kts 331°
2026-04-21 11:43 51.73103 -0.08867 13613 ft 307 kts 331°
2026-04-21 11:43 51.75525 -0.11304 14668 ft 312 kts 331°
2026-04-21 11:43 51.77395 -0.13125 15373 ft 315 kts 332°
2026-04-21 11:44 51.78675 -0.14346 15819 ft 317 kts 332°
2026-04-21 11:44 51.80569 -0.16139 16472 ft 321 kts 333°
2026-04-21 11:44 51.82506 -0.17970 17019 ft 324 kts 332°
2026-04-21 11:44 51.84471 -0.19826 17644 ft 327 kts 332°
2026-04-21 11:45 51.86447 -0.21697 18239 ft 331 kts 332°
2026-04-21 11:45 51.88443 -0.23595 18800 ft 334 kts 332°
2026-04-21 11:45 51.90444 -0.25506 19410 ft 333 kts 332°
2026-04-21 11:45 51.92434 -0.27405 20032 ft 331 kts 332°
2026-04-21 11:46 51.94421 -0.29297 20610 ft 330 kts 331°
2026-04-21 11:46 51.96405 -0.31181 21147 ft 330 kts 331°
2026-04-21 11:46 51.98361 -0.33044 21657 ft 330 kts 330°
2026-04-21 11:46 52.00339 -0.34939 22173 ft 329 kts 330°
2026-04-21 11:47 52.02315 -0.36843 22696 ft 329 kts 330°
2026-04-21 11:47 52.04289 -0.38743 23158 ft 330 kts 329°
2026-04-21 11:47 52.06279 -0.40653 23599 ft 332 kts 329°
2026-04-21 11:47 52.08270 -0.42589 24009 ft 333 kts 329°
2026-04-21 11:48 52.10270 -0.44538 24346 ft 335 kts 328°
2026-04-21 11:48 52.12250 -0.46456 24709 ft 335 kts 329°
2026-04-21 11:48 52.14284 -0.48415 25057 ft 336 kts 328°
2026-04-21 11:48 52.16301 -0.50359 25457 ft 335 kts 328°
2026-04-21 11:49 52.18297 -0.52310 25898 ft 333 kts 328°
2026-04-21 11:49 52.20277 -0.54242 26351 ft 330 kts 327°
2026-04-21 11:49 52.22224 -0.56129 26789 ft 328 kts 327°
2026-04-21 11:49 52.24179 -0.58023 27211 ft 325 kts 327°
2026-04-21 11:50 52.26115 -0.59922 27651 ft 323 kts 327°
2026-04-21 11:50 52.28037 -0.61804 28083 ft 320 kts 327°
2026-04-21 11:50 52.29950 -0.63668 28262 ft 321 kts 327°
2026-04-21 11:50 52.31868 -0.65536 28308 ft 328 kts 327°
2026-04-21 11:51 52.35902 -0.69475 28359 ft 346 kts 327°
2026-04-21 11:51 52.40136 -0.73636 28370 ft 362 kts 327°
2026-04-21 11:52 52.44505 -0.77949 28370 ft 374 kts 327°
2026-04-21 11:52 52.48960 -0.82362 28372 ft 374 kts 327°
2026-04-21 11:53 52.53428 -0.86800 28362 ft 375 kts 327°
2026-04-21 11:53 52.57901 -0.91252 28362 ft 376 kts 327°
2026-04-21 11:54 52.62407 -0.95715 28347 ft 378 kts 327°
2026-04-21 11:54 52.66912 -1.00207 28332 ft 378 kts 326°
2026-04-21 11:55 52.71399 -1.04670 28389 ft 379 kts 327°
2026-04-21 11:55 52.75944 -1.09201 28394 ft 381 kts 327°
2026-04-21 11:56 52.80463 -1.13725 28388 ft 383 kts 327°
2026-04-21 11:56 52.85023 -1.18301 28401 ft 384 kts 327°
2026-04-21 11:57 52.89595 -1.22909 28400 ft 385 kts 327°
2026-04-21 11:57 52.94191 -1.27527 28399 ft 386 kts 327°
2026-04-21 11:58 52.98734 -1.32153 28396 ft 386 kts 327°
2026-04-21 11:58 53.03370 -1.36853 28398 ft 386 kts 326°
2026-04-21 11:59 53.07971 -1.41525 28393 ft 387 kts 327°
2026-04-21 11:59 53.12534 -1.46186 28394 ft 387 kts 326°
2026-04-21 12:00 53.17133 -1.50895 28384 ft 387 kts 327°
2026-04-21 12:00 53.21717 -1.55582 28396 ft 387 kts 326°
2026-04-21 12:01 53.26320 -1.60315 28398 ft 388 kts 326°
2026-04-21 12:01 53.30925 -1.65052 28388 ft 388 kts 327°
2026-04-21 12:02 53.37836 -1.72205 28393 ft 389 kts 326°
2026-04-21 12:03 53.42419 -1.76939 28393 ft 388 kts 326°
2026-04-21 12:03 53.47021 -1.81713 28402 ft 388 kts 326°
2026-04-21 12:04 53.51624 -1.86512 28395 ft 390 kts 327°
2026-04-21 12:04 53.56209 -1.91305 28406 ft 390 kts 326°
2026-04-21 12:05 53.60841 -1.96146 28429 ft 391 kts 326°
2026-04-21 12:05 53.65483 -2.01025 28420 ft 393 kts 326°
2026-04-21 12:06 53.70097 -2.05902 28426 ft 394 kts 326°
2026-04-21 12:06 53.74840 -2.10600 28422 ft 396 kts 332°
2026-04-21 12:07 53.79911 -2.14362 28419 ft 398 kts 336°
2026-04-21 12:07 53.85095 -2.17805 28439 ft 399 kts 337°
2026-04-21 12:08 53.90254 -2.21245 28426 ft 400 kts 337°
2026-04-21 12:08 53.95438 -2.24801 28436 ft 401 kts 336°
2026-04-21 12:09 54.00630 -2.28367 28427 ft 402 kts 336°
2026-04-21 12:09 54.05836 -2.31953 28441 ft 404 kts 337°
2026-04-21 12:10 54.11064 -2.35562 28442 ft 407 kts 337°
2026-04-21 12:10 54.16287 -2.39215 28445 ft 409 kts 337°
2026-04-21 12:11 54.21584 -2.42861 28445 ft 411 kts 338°
2026-04-21 12:11 54.26905 -2.46532 28442 ft 413 kts 338°
2026-04-21 12:12 54.32255 -2.50258 28447 ft 415 kts 338°
2026-04-21 12:12 54.37606 -2.54023 28454 ft 416 kts 338°
2026-04-21 12:13 54.42965 -2.57830 28458 ft 417 kts 338°
2026-04-21 12:13 54.48292 -2.61638 28466 ft 418 kts 338°
2026-04-21 12:14 54.53702 -2.65419 28430 ft 420 kts 339°
2026-04-21 12:14 54.56419 -2.67330 28157 ft 422 kts 339°
2026-04-21 12:14 54.59137 -2.69254 27929 ft 422 kts 339°
2026-04-21 12:14 54.61812 -2.71162 27710 ft 412 kts 339°
2026-04-21 12:15 54.64464 -2.73071 27498 ft 412 kts 339°
2026-04-21 12:15 54.67114 -2.74986 27288 ft 412 kts 339°
2026-04-21 12:15 54.69762 -2.76895 27076 ft 411 kts 340°
2026-04-21 12:15 54.72377 -2.78766 26871 ft 411 kts 340°
2026-04-21 12:16 54.75019 -2.80657 26671 ft 409 kts 340°
2026-04-21 12:16 54.77655 -2.82537 26527 ft 408 kts 340°
2026-04-21 12:16 54.80278 -2.84417 26500 ft 407 kts 340°
2026-04-21 12:16 54.82892 -2.86293 26490 ft 407 kts 340°
2026-04-21 12:17 54.85510 -2.88172 26490 ft 407 kts 340°
2026-04-21 12:17 54.88128 -2.90055 26489 ft 406 kts 340°
2026-04-21 12:17 54.90738 -2.91940 26488 ft 408 kts 340°
2026-04-21 12:17 54.93391 -2.93855 26394 ft 417 kts 340°
2026-04-21 12:18 54.96072 -2.95811 25992 ft 418 kts 340°
2026-04-21 12:18 54.98732 -2.97743 25362 ft 413 kts 340°
2026-04-21 12:18 55.01378 -2.99650 24640 ft 410 kts 340°
2026-04-21 12:18 55.04001 -3.01540 23897 ft 406 kts 340°
2026-04-21 12:19 55.06568 -3.03395 23069 ft 403 kts 340°
2026-04-21 12:19 55.09149 -3.05265 22258 ft 400 kts 340°
2026-04-21 12:19 55.11714 -3.07129 21468 ft 398 kts 340°
2026-04-21 12:19 55.14260 -3.08988 20699 ft 396 kts 340°
2026-04-21 12:20 55.16779 -3.10834 20049 ft 390 kts 340°
2026-04-21 12:20 55.18465 -3.12074 19613 ft 386 kts 340°
2026-04-21 12:20 55.21715 -3.14467 18847 ft 378 kts 340°
2026-04-21 12:20 55.24117 -3.16244 18240 ft 371 kts 340°
2026-04-21 12:21 55.26478 -3.17993 17649 ft 365 kts 341°
2026-04-21 12:21 55.28862 -3.19250 17121 ft 353 kts 353°
2026-04-21 12:21 55.31228 -3.20205 16596 ft 349 kts 341°
2026-04-21 12:21 55.33291 -3.22448 16093 ft 348 kts 326°
2026-04-21 12:22 55.35216 -3.24988 15606 ft 344 kts 326°
2026-04-21 12:22 55.36482 -3.26667 15285 ft 342 kts 325°
2026-04-21 12:22 55.38363 -3.29203 14801 ft 338 kts 324°
2026-04-21 12:22 55.40217 -3.31729 14318 ft 336 kts 324°
2026-04-21 12:23 55.42057 -3.34259 13785 ft 333 kts 324°
2026-04-21 12:23 55.43877 -3.36770 13193 ft 331 kts 324°
2026-04-21 12:23 55.45695 -3.39281 12539 ft 332 kts 324°
2026-04-21 12:23 55.47513 -3.41785 11887 ft 327 kts 324°
2026-04-21 12:24 55.49262 -3.44196 11351 ft 311 kts 324°
2026-04-21 12:24 55.50952 -3.46530 10673 ft 306 kts 324°
2026-04-21 12:24 55.52602 -3.48815 9923 ft 302 kts 324°
2026-04-21 12:24 55.54258 -3.51112 9396 ft 301 kts 324°
2026-04-21 12:25 55.55897 -3.53393 8929 ft 298 kts 324°
2026-04-21 12:25 55.57502 -3.55631 8514 ft 296 kts 324°
2026-04-21 12:25 55.59114 -3.57877 8082 ft 294 kts 324°
2026-04-21 12:25 55.60722 -3.60115 7670 ft 292 kts 324°
2026-04-21 12:26 55.62317 -3.62337 7270 ft 291 kts 324°
2026-04-21 12:26 55.63902 -3.64550 6869 ft 289 kts 324°
2026-04-21 12:26 55.65476 -3.66750 6485 ft 286 kts 324°
2026-04-21 12:26 55.67023 -3.68928 6247 ft 278 kts 324°
2026-04-21 12:27 55.68501 -3.71020 6209 ft 264 kts 324°
2026-04-21 12:27 55.69902 -3.73016 6139 ft 254 kts 324°
2026-04-21 12:27 55.71258 -3.74957 5926 ft 252 kts 324°
2026-04-21 12:27 55.72619 -3.76914 5704 ft 251 kts 324°
2026-04-21 12:28 55.73959 -3.78855 5609 ft 243 kts 324°
2026-04-21 12:28 55.75241 -3.80720 5587 ft 233 kts 325°
2026-04-21 12:28 55.76640 -3.81892 5517 ft 215 kts
2026-04-21 12:28 55.78026 -3.81429 5449 ft 199 kts 26°
2026-04-21 12:29 55.79319 -3.80618 5365 ft 195 kts 27°
2026-04-21 12:29 55.80507 -3.79560 5279 ft 186 kts 45°
2026-04-21 12:29 55.81190 -3.77756 5204 ft 176 kts 70°
2026-04-21 12:29 55.81802 -3.75877 5118 ft 176 kts 61°
2026-04-21 12:30 55.82494 -3.74017 4843 ft 183 kts 62°
2026-04-21 12:30 55.83161 -3.72039 4609 ft 189 kts 62°
2026-04-21 12:30 55.83838 -3.70057 4381 ft 183 kts 62°
2026-04-21 12:30 55.84474 -3.68200 4121 ft 169 kts 62°
2026-04-21 12:31 55.85065 -3.66465 3873 ft 159 kts 62°
2026-04-21 12:31 55.85630 -3.64807 3635 ft 153 kts 62°
2026-04-21 12:31 55.86166 -3.63231 3431 ft 150 kts 62°
2026-04-21 12:31 55.86710 -3.61632 3220 ft 150 kts 62°
2026-04-21 12:32 55.87252 -3.60046 3001 ft 150 kts 62°
2026-04-21 12:32 55.87790 -3.58464 2826 ft 149 kts 62°
2026-04-21 12:32 55.88328 -3.56876 2588 ft 149 kts 62°
2026-04-21 12:32 55.88861 -3.55310 2396 ft 148 kts 62°
2026-04-21 12:33 55.89389 -3.53757 2178 ft 147 kts 62°
2026-04-21 12:33 55.89915 -3.52214 1963 ft 143 kts 62°
2026-04-21 12:33 55.90408 -3.50769 1780 ft 128 kts 62°
2026-04-21 12:33 55.90847 -3.49476 1597 ft 115 kts 62°
2026-04-21 12:34 55.91255 -3.48285 1443 ft 113 kts 62°
2026-04-21 12:34 55.91665 -3.47081 1286 ft 114 kts 63°
2026-04-21 12:34 55.92061 -3.45870 1142 ft 115 kts 63°
2026-04-21 12:34 55.92481 -3.44666 959 ft 114 kts 60°
2026-04-21 12:35 55.92896 -3.43471 805 ft 110 kts 61°
2026-04-21 12:35 55.93282 -3.42299 639 ft 113 kts 61°
2026-04-21 12:35 55.93687 -3.41110 472 ft 111 kts 60°
2026-04-21 12:35 55.94089 -3.39929 323 ft 111 kts 59°
2026-04-21 12:36 55.94488 -3.38755 173 ft 109 kts 59°
2026-04-21 12:36 55.94859 -3.37662 113 ft 91 kts 59°
2026-04-21 12:36 55.95125 -3.36880 113 ft 53 kts 59°
2026-04-21 12:36 55.95241 -3.36533 112 ft 21 kts 59°
2026-04-21 12:37 55.95239 -3.36400 112 ft 7 kts 148°
2026-04-21 12:37 55.95206 -3.36366 114 ft 5 kts 150°
2026-04-21 12:37 55.95172 -3.36330 113 ft 7 kts 149°
2026-04-21 12:37 55.95138 -3.36239 114 ft 10 kts 107°
2026-04-21 12:38 55.95117 -3.36123 115 ft 10 kts 109°
2026-04-21 12:38 55.95090 -3.35990 115 ft 12 kts 111°
2026-04-21 12:38 55.95042 -3.35852 113 ft 14 kts 146°
2026-04-21 12:38 55.94948 -3.35863 116 ft 13 kts 189°
2026-04-21 12:39 55.94872 -3.35928 116 ft 8 kts 209°
2026-04-21 12:39 55.94858 -3.35942 114 ft 0 kts 208°